Lid_Strength_Index
14 15 17 17 16 17 18 18 18 17 16 17 16 15 13 12 12 13 12 12 11 11 10 9 9 9 8 7 5 6 7 7 6 1 2 2 2 2 1 1 -0 0 -0 -0
15 18 17 16 16 17 17 18 18 16 16 17 16 16 13 13 13 12 12 12 12 11 10 10 10 9 9 8 7 7 8 8 7 7 2 1 1 1 1 2 1 1 -0 -0
17 17 16 17 17 17 17 18 18 19 17 16 17 15 15 13 13 12 11 11 11 11 10 10 10 9 9 8 7 7 8 8 8 7 6 4 1 1 2 2 2 2 1 -0
18 17 17 17 18 17 19 17 18 19 18 18 16 18 15 14 14 13 12 11 11 10 9 10 10 9 8 8 6 6 7 9 9 8 8 7 7 4 2 2 2 2 1 0
18 18 18 18 18 16 17 16 18 18 19 19 18 19 15 15 15 13 12 12 11 10 10 10 9 9 7 7 6 6 6 9 9 9 9 8 8 7 6 3 2 2 1 0
18 16 16 17 16 16 16 17 19 19 19 19 19 19 16 15 14 13 12 11 11 10 10 9 8 7 7 6 6 5 6 8 10 10 9 9 8 8 7 6 6 2 1 2
18 18 17 16 18 17 16 18 18 18 18 18 19 19 16 14 13 13 13 11 11 10 10 10 9 8 7 6 6 6 6 7 10 11 10 9 8 8 8 7 6 6 2 2
20 18 18 17 18 19 18 19 19 22 22 20 18 21 15 13 13 12 11 11 11 10 10 9 9 8 7 7 6 6 6 7 7 10 10 9 8 7 8 7 6 6 6 1
19 19 18 17 17 17 19 19 19 21 22 23 19 17 14 13 14 13 12 11 10 10 10 9 8 8 7 7 7 7 7 7 6 8 9 9 8 8 8 7 6 6 6 2
20 20 19 18 17 17 18 17 20 20 22 23 19 20 18 14 14 12 12 11 11 10 9 9 8 8 7 7 7 7 7 6 6 5 7 8 8 8 8 7 7 6 5 5
19 20 19 19 19 19 19 19 21 20 20 22 23 18 13 14 13 14 13 12 11 10 10 9 8 8 8 7 7 7 7 6 6 6 5 6 8 9 8 8 7 6 4 4
18 19 21 19 19 18 18 19 19 19 21 20 21 20 13 14 13 14 13 11 10 10 9 9 9 8 8 8 8 7 7 6 6 6 4 4 6 8 9 8 7 6 5 3
18 20 21 20 20 20 20 19 18 19 19 21 21 18 14 15 13 12 12 11 10 10 10 10 9 9 8 8 7 7 6 6 6 6 5 4 4 7 10 9 8 6 6 5
16 20 20 19 18 19 21 21 18 18 20 19 20 17 14 14 13 13 12 11 10 10 10 10 10 9 9 8 8 8 7 6 5 6 5 5 4 5 9 10 10 9 9 5
17 21 21 20 20 20 20 20 20 20 18 20 17 16 14 13 13 13 13 11 11 11 11 11 10 10 9 9 8 8 7 6 6 7 6 5 5 5 7 11 12 12 12 11
18 21 23 24 20 20 21 19 18 19 18 18 18 18 14 13 12 14 13 12 12 12 11 11 10 10 9 10 10 9 8 7 6 7 7 6 6 7 8 10 13 14 13 14
19 20 23 23 23 22 23 21 19 19 17 17 19 16 13 14 13 13 13 12 12 12 12 12 11 10 10 11 10 10 8 8 7 8 7 6 7 8 9 10 11 11 14 14
20 21 21 23 24 24 17 18 17 18 16 16 15 15 13 13 13 13 12 12 12 12 12 12 11 11 11 11 10 10 9 8 7 7 7 7 7 9 9 11 12 12 13 15
18 19 22 24 26 21 18 20 20 20 16 14 15 14 14 13 13 13 11 11 11 12 11 11 11 11 11 11 11 10 9 8 7 8 8 8 8 9 10 11 12 12 12 13
19 19 19 27 25 22 17 17 16 17 17 13 14 14 14 14 16 13 12 11 11 11 10 11 11 11 11 11 11 11 10 10 9 9 9 8 8 9 10 11 13 13 13 13
23 22 23 24 24 22 17 16 16 18 13 14 14 13 13 15 13 12 12 12 11 12 10 10 11 12 12 12 12 12 12 11 10 9 9 9 8 10 11 11 11 13 13 13
23 23 24 23 25 25 17 17 18 13 14 13 14 13 13 13 13 13 13 13 12 12 11 11 12 12 12 13 13 13 13 12 11 11 11 10 10 11 11 12 12 13 14 14
21 18 21 21 21 17 16 14 14 14 13 13 13 13 13 13 13 13 13 13 14 12 12 12 12 13 13 13 13 14 13 12 12 11 12 12 11 12 12 13 13 13 14 15
21 18 20 20 17 17 16 15 14 14 14 13 13 13 13 14 13 13 13 13 13 11 12 13 12 13 13 13 13 13 13 12 12 11 11 11 12 12 12 12 13 13 14 15
17 19 19 20 17 17 15 14 13 13 13 14 13 14 14 14 14 13 13 13 14 13 12 12 12 12 12 12 13 13 13 12 12 12 12 11 12 12 13 13 13 13 14 13
18 19 19 16 15 14 13 13 13 13 13 13 14 14 14 14 13 13 13 13 14 14 12 13 12 12 12 12 12 13 13 13 12 12 12 13 12 12 12 13 13 12 12 12